EN

Hourly Weather Burlaky

Today, 20 April, Tuesday

Time Temperature Precipitation Wind Pressure Humidity
00:00 +6°C° 0 mm 2 mps 751 mmHg 82%
01:00 +6°C° 0 mm 2 mps 751 mmHg 82%
02:00 +6°C° 0 mm 2 mps 750 mmHg 82%
03:00 +6°C° 0 mm 2 mps 750 mmHg 83%
04:00 +6°C° 0 mm 2 mps 750 mmHg 83%
05:00 +6°C° 0 mm 2 mps 749 mmHg 83%
06:00 +7°C° 0 mm 3 mps 749 mmHg 81%
07:00 +7°C° 0 mm 3 mps 749 mmHg 79%
08:00 +8°C° 0 mm 3 mps 749 mmHg 77%
09:00 +9°C° 0.1 mm 3 mps 748 mmHg 73%
10:00 +10°C° 0.1 mm 4 mps 748 mmHg 69%
11:00 +12°C° 0.1 mm 4 mps 747 mmHg 65%
12:00 +11°C° 0.2 mm 4 mps 747 mmHg 68%
13:00 +11°C° 0.2 mm 4 mps 747 mmHg 71%
14:00 +10°C° 0.2 mm 5 mps 746 mmHg 74%
15:00 +11°C° 0 mm 4 mps 746 mmHg 74%
16:00 +11°C° 0 mm 4 mps 746 mmHg 74%
17:00 +11°C° 0 mm 4 mps 745 mmHg 74%
18:00 +10°C° 0 mm 4 mps 746 mmHg 78%
19:00 +9°C° 0 mm 3 mps 746 mmHg 82%
20:00 +8°C° 0 mm 3 mps 746 mmHg 86%
21:00 +8°C° 0 mm 3 mps 746 mmHg 88%
22:00 +7°C° 0 mm 4 mps 746 mmHg 89%
23:00 +6°C° 0 mm 4 mps 746 mmHg 91%

Tomorrow, 21 April, Wednesday

Time Temperature Precipitation Wind Pressure Humidity
00:00 +6°C° 0 mm 4 mps 747 mmHg 91%
01:00 +5°C° 0 mm 4 mps 747 mmHg 92%
02:00 +5°C° 0 mm 4 mps 747 mmHg 93%
03:00 +4°C° 0 mm 4 mps 748 mmHg 93%
04:00 +4°C° 0 mm 4 mps 748 mmHg 92%
05:00 +3°C° 0 mm 3 mps 748 mmHg 92%
06:00 +5°C° 0 mm 3 mps 749 mmHg 86%
07:00 +6°C° 0 mm 4 mps 749 mmHg 79%
08:00 +8°C° 0 mm 4 mps 750 mmHg 73%
09:00 +10°C° 0.2 mm 4 mps 750 mmHg 68%
10:00 +10°C° 0.2 mm 5 mps 750 mmHg 64%
11:00 +10°C° 0.2 mm 5 mps 750 mmHg 59%
12:00 +12°C° 0.2 mm 5 mps 750 mmHg 56%
13:00 +12°C° 0.2 mm 5 mps 750 mmHg 54%
14:00 +13°C° 0.2 mm 5 mps 750 mmHg 51%
15:00 +13°C° 0.1 mm 4 mps 751 mmHg 53%
16:00 +12°C° 0.1 mm 3 mps 751 mmHg 55%
17:00 +12°C° 0.1 mm 3 mps 751 mmHg 58%
18:00 +12°C° 0 mm 2 mps 751 mmHg 63%
19:00 +10°C° 0 mm 2 mps 752 mmHg 69%
20:00 +9°C° 0 mm 2 mps 752 mmHg 74%
21:00 +9°C° 0 mm 2 mps 752 mmHg 76%
22:00 +8°C° 0 mm 2 mps 752 mmHg 78%
23:00 +8°C° 0 mm 2 mps 752 mmHg 80%

Day after tomorrow, 22 April, Thursday

Time Temperature Precipitation Wind Pressure Humidity
00:00 +8°C° 0 mm 2 mps 752 mmHg 82%
01:00 +7°C° 0 mm 2 mps 752 mmHg 84%
02:00 +7°C° 0 mm 3 mps 753 mmHg 86%
03:00 +7°C° 0 mm 3 mps 753 mmHg 88%
04:00 +5°C° 0 mm 3 mps 753 mmHg 90%
05:00 +5°C° 0 mm 3 mps 753 mmHg 91%
06:00 +8°C° 0 mm 3 mps 754 mmHg 85%
07:00 +9°C° 0 mm 3 mps 754 mmHg 79%
08:00 +11°C° 0 mm 3 mps 754 mmHg 72%
09:00 +12°C° 0 mm 4 mps 754 mmHg 66%
10:00 +14°C° 0 mm 4 mps 755 mmHg 59%
11:00 +16°C° 0 mm 5 mps 755 mmHg 53%
12:00 +16°C° 0 mm 5 mps 754 mmHg 50%
13:00 +17°C° 0 mm 5 mps 754 mmHg 48%
14:00 +17°C° 0 mm 5 mps 754 mmHg 46%
15:00 +17°C° 0 mm 5 mps 754 mmHg 48%
16:00 +16°C° 0 mm 5 mps 754 mmHg 50%
17:00 +16°C° 0 mm 5 mps 754 mmHg 53%
18:00 +15°C° 0 mm 5 mps 754 mmHg 57%
19:00 +13°C° 0 mm 4 mps 754 mmHg 61%
20:00 +12°C° 0 mm 3 mps 754 mmHg 66%
21:00 +12°C° 0 mm 4 mps 754 mmHg 67%
22:00 +11°C° 0 mm 4 mps 754 mmHg 68%
23:00 +11°C° 0 mm 4 mps 754 mmHg 70%

23 April, Friday

Time Temperature Precipitation Wind Pressure Humidity
00:00 +11°C° 0 mm 4 mps 754 mmHg 72%
01:00 +10°C° 0 mm 4 mps 754 mmHg 73%
02:00 +10°C° 0 mm 4 mps 754 mmHg 75%
03:00 +8°C° 0 mm 4 mps 754 mmHg 78%
04:00 +8°C° 0 mm 4 mps 754 mmHg 80%
05:00 +7°C° 0 mm 4 mps 754 mmHg 82%
06:00 +9°C° 0 mm 5 mps 754 mmHg 77%
07:00 +10°C° 0 mm 5 mps 754 mmHg 72%
08:00 +13°C° 0 mm 6 mps 754 mmHg 67%
09:00 +14°C° 0 mm 7 mps 754 mmHg 62%
10:00 +16°C° 0 mm 8 mps 754 mmHg 57%
11:00 +17°C° 0 mm 8 mps 753 mmHg 52%
12:00 +17°C° 0.2 mm 8 mps 753 mmHg 52%
13:00 +17°C° 0.2 mm 8 mps 753 mmHg 52%
14:00 +17°C° 0.2 mm 8 mps 752 mmHg 52%
15:00 +16°C° 0.7 mm 7 mps 752 mmHg 59%
16:00 +15°C° 0.7 mm 6 mps 752 mmHg 66%
17:00 +13°C° 0.7 mm 6 mps 752 mmHg 73%
18:00 +10°C° 1.7 mm 6 mps 752 mmHg 79%
19:00 +7°C° 1.7 mm 6 mps 753 mmHg 85%
20:00 +4°C° 1.7 mm 6 mps 753 mmHg 92%
21:00 +3°C° 2.1 mm 5 mps 754 mmHg 92%
22:00 +3°C° 2.1 mm 5 mps 754 mmHg 93%
23:00 +3°C° 2.1 mm 5 mps 754 mmHg 93%

24 April, Saturday

Time Temperature Precipitation Wind Pressure Humidity
00:00 +4°C° 0.4 mm 4 mps 754 mmHg 92%
01:00 +4°C° 0.4 mm 4 mps 754 mmHg 90%
02:00 +4°C° 0.4 mm 3 mps 754 mmHg 89%
03:00 +4°C° 0 mm 3 mps 753 mmHg 90%
04:00 +3°C° 0 mm 3 mps 753 mmHg 92%
05:00 +3°C° 0 mm 4 mps 753 mmHg 93%
06:00 +3°C° 0 mm 5 mps 753 mmHg 87%
07:00 +3°C° 0 mm 6 mps 754 mmHg 81%
08:00 +4°C° 0 mm 7 mps 754 mmHg 75%
09:00 +4°C° 0.1 mm 7 mps 754 mmHg 69%
10:00 +4°C° 0.1 mm 8 mps 754 mmHg 63%
11:00 +4°C° 0.1 mm 8 mps 754 mmHg 57%
12:00 +5°C° 0.2 mm 8 mps 754 mmHg 54%
13:00 +5°C° 0.2 mm 8 mps 755 mmHg 52%
14:00 +5°C° 0.2 mm 9 mps 755 mmHg 49%
15:00 +5°C° 0 mm 8 mps 755 mmHg 50%
16:00 +5°C° 0 mm 7 mps 755 mmHg 51%
17:00 +5°C° 0 mm 6 mps 755 mmHg 52%
18:00 +5°C° 0 mm 5 mps 756 mmHg 56%
19:00 +4°C° 0 mm 4 mps 756 mmHg 60%
20:00 +4°C° 0 mm 2 mps 756 mmHg 64%
21:00 +3°C° 0 mm 3 mps 756 mmHg 65%
22:00 +2°C° 0 mm 3 mps 756 mmHg 66%
23:00 +2°C° 0 mm 3 mps 756 mmHg 67%

25 April, Sunday

Time Temperature Precipitation Wind Pressure Humidity
00:00 +2°C° 0 mm 3 mps 756 mmHg 71%
01:00 +2°C° 0 mm 3 mps 756 mmHg 75%
02:00 +1°C° 0 mm 4 mps 756 mmHg 80%
03:00 +1°C° 0.1 mm 4 mps 755 mmHg 84%
04:00 +3°C° 0.1 mm 4 mps 755 mmHg 88%
05:00 +3°C° 0.1 mm 4 mps 754 mmHg 92%
06:00 +3°C° 0.4 mm 5 mps 754 mmHg 88%
07:00 +4°C° 0.4 mm 6 mps 754 mmHg 84%
08:00 +5°C° 0.4 mm 7 mps 754 mmHg 80%
09:00 +5°C° 0.3 mm 7 mps 754 mmHg 79%
10:00 +5°C° 0.3 mm 7 mps 754 mmHg 79%
11:00 +5°C° 0.3 mm 7 mps 754 mmHg 78%
12:00 +5°C° 0.1 mm 7 mps 754 mmHg 71%
13:00 +6°C° 0.1 mm 7 mps 754 mmHg 65%
14:00 +7°C° 0.1 mm 6 mps 754 mmHg 58%
15:00 +7°C° 0 mm 6 mps 754 mmHg 55%
16:00 +7°C° 0 mm 6 mps 755 mmHg 53%
17:00 +7°C° 0 mm 5 mps 755 mmHg 50%
18:00 +6°C° 0 mm 5 mps 755 mmHg 55%
19:00 +4°C° 0 mm 4 mps 755 mmHg 60%
20:00 +3°C° 0 mm 3 mps 756 mmHg 65%
21:00 +2°C° 0 mm 3 mps 756 mmHg 67%
22:00 +2°C° 0 mm 3 mps 756 mmHg 69%
23:00 +1°C° 0 mm 3 mps 756 mmHg 72%
Show more

We Need Your Consent

Meteoprog and our Service Providers may store and access personal data such as cookies, device identifiers or other similar technologies on your device and process such data to personalise content and ads, as well as provide social media features and to analyse the traffic.

  • Store and/or access information on your device

    Cookies, device identifiers or other information can be stored or accessed on your device for the purposes indicated above.

  • Personalised ads and content, ad and content measurement, audience insights, and products development

    Ads and content can be personalised based on a profile. More data can be added to better personalise ads and content. Ad and content performance can be measured. Insights about the audience who saw the ads and content can be derived. Such data can be used to develop or improve user’s experience, systems and software.

By clicking ‘I Agree’ you will allow the use of indicated cookies, device identifiers, web beacons or other similar technologies. Your settings can be changed in the browser on your device.

For certain purposes, legitimate interests may be relied on, rather than consent. You can read more about this in our Privacy and Cookie Policy.